This is the latest recevied weather packets stored in our database for station/object K7KAR-2. If no packets are shown the sender has not sent any weather packets the latest 10 day(s).
| Time | Temp. | Humidity | Pressure | Rain* | Wind** | Luminosity | Snow |
|---|---|---|---|---|---|---|---|
| 1777672588 | 21.11° C | 10% | 1016.7 hPa | 0 mm | - | 567 W/m² | - |
| 1777672283 | 21.11° C | 10% | 1017 hPa | 0 mm | - | 584 W/m² | - |
| 1777671978 | 20.56° C | 10% | 1016.7 hPa | 0 mm | - | 603 W/m² | - |
| 1777671674 | 21.11° C | 10% | 1016.9 hPa | 0 mm | - | 616 W/m² | - |
| 1777671371 | 21.67° C | 10% | 1016.8 hPa | 0 mm | - | 629 W/m² | - |
| 1777671067 | 21.11° C | 10% | 1016.9 hPa | 0 mm | - | 636 W/m² | - |
| 1777670764 | 20.56° C | 10% | 1017.1 hPa | 0 mm | - | 647 W/m² | - |
| 1777670461 | 20.56° C | 10% | 1017.1 hPa | 0 mm | - | 658 W/m² | - |
| 1777670157 | 20.56° C | 10% | 1017.2 hPa | 0 mm | - | 661 W/m² | - |
| 1777669855 | 20° C | 10% | 1017 hPa | 0 mm | - | 675 W/m² | - |
| 1777669551 | 20° C | 10% | 1017.2 hPa | 0 mm | - | 684 W/m² | - |
| 1777669248 | 20° C | 10% | 1017 hPa | 0 mm | - | 695 W/m² | - |
| 1777668944 | 20.56° C | 10% | 1017.6 hPa | 0 mm | - | 681 W/m² | - |
| 1777668642 | 20° C | 10% | 1017.5 hPa | 0 mm | - | 672 W/m² | - |
| 1777668338 | 20° C | 10% | 1017.4 hPa | 0 mm | - | 674 W/m² | - |
| 1777668034 | 20° C | 10% | 1017.2 hPa | 0 mm | - | 715 W/m² | - |
| 1777667731 | 20° C | 10% | 1017.2 hPa | 0 mm | - | 762 W/m² | - |
| 1777667429 | 19.44° C | 10% | 1017.4 hPa | 0 mm | - | 761 W/m² | - |
| 1777667126 | 20° C | 10% | 1017.5 hPa | 0 mm | - | 783 W/m² | - |
| 1777666822 | 20° C | 10% | 1017.5 hPa | 0 mm | - | 789 W/m² | - |
| 1777666520 | 20.56° C | 10% | 1017.6 hPa | 0 mm | - | 773 W/m² | - |
| 1777666216 | 20.56° C | 10% | 1017.5 hPa | 0 mm | - | 774 W/m² | - |
| 1777665913 | 20° C | 10% | 1017.5 hPa | 0 mm | - | 782 W/m² | - |
| 1777665611 | 20.56° C | 10% | 1017.6 hPa | 0 mm | - | 790 W/m² | - |
| 1777665308 | 21.11° C | 10% | 1017.4 hPa | 0 mm | - | 784 W/m² | - |
* Rain latest hour (hover to see other rain measurements)
** Current wind speed in m/s (hover to see current wind gust speed)